Location: Casa Buffalotta
(41.9833°N, 12.5500°E)
Time: 15:04:14
(UTC+00:00)

Daily predictions for brighter satellites

Satellite Brightness Start Highest point End
(mag) Time Altitude Azimuth Time Altitude Azimuth Time Altitude Azimuth
SKYMED 2 4.3 16:41:13 10° NNE 16:45:10 33° E 16:49:06 10° SSE
Cosmos 1726 Rocket 4.4 16:43:22 10° SSW 16:47:40 56° W 16:51:58 10° N
Gbstr 26 Del rocket 4.1 16:42:32 10° NW 16:48:21 69° NNE 16:55:31 10° ESE
CZ-4 R/B 2.3 16:45:47 10° SE 16:49:28 30° ENE 16:53:11 10° N
Unknown 3.6 16:46:35 10° NW 16:49:52 44° NNE 16:53:09 10° ESE
Shenzhou-11 Module 2.7 16:48:10 10° W 16:50:50 44° SSW 16:53:30 10° SE
Cosmos 1777 Rocket 4.0 16:45:59 10° NNW 16:51:13 75° ENE 16:56:24 10° SSE
Meteor 1-11 4.3 16:48:15 10° N 16:54:01 66° ENE 16:59:48 10° SSE
Cosmos 1461 2.9 16:51:02 10° NNW 16:55:08 65° NE 16:59:21 10° SE
Cosmos 839 Rocket 4.4 16:49:32 10° NW 16:55:49 79° WSW 17:03:11 10° SSE
ATLAS 3B R/B 3.5 16:53:00 10° SSE 16:58:33 28° ESE 17:04:02 10° NE
USA 116 4.5 16:57:48 10° NE 17:00:40 25° E 17:03:46 10° SSE
Cosmos 44 3.9 16:57:11 10° S 17:01:46 37° ESE 17:06:08 10° NE
Cosmos 1833 Rocket 2.7 16:56:47 10° NNW 17:02:25 67° ENE 17:07:59 10° SSE
CENTAUR R/B 3.2 16:59:21 10° S 17:04:19 30° ESE 17:09:56 10° NE
FALCON 9 DEB 3.4 17:02:49 10° NW 17:06:14 51° NNE 17:09:09 13° ESE
Cosmos 1242 Rocket 4.3 17:08:02 10° NNW 17:11:29 38° W 17:14:53 10° SSW
Cosmos 2084 Rocket 3.9 17:08:55 10° NNW 17:13:10 44° NE 17:17:01 12° ESE
Falcon 9 debris 3.0 17:15:09 10° NW 17:18:36 73° NE 17:21:07 17° ESE
SJ 16-02 2.9 17:16:23 10° NNE 17:19:09 16° ENE 17:19:25 16° ENE
Cosmos 1153 Rocket 4.5 17:13:25 10° N 17:19:28 58° E 17:25:31 10° SSE
Cosmos 1300 3.0 17:16:46 10° SSE 17:20:21 42° E 17:23:59 10° NNE
Abrixas rocket 3.7 17:20:22 10° WNW 17:22:59 25° N 17:24:36 16° NE
Envisat 3.1 17:18:47 10° S 17:23:51 80° WSW 17:28:58 10° NNW
Unknown 3.2 17:22:09 10° NW 17:25:38 63° NE 17:27:36 24° ESE
COBE Rocket 4.4 17:21:17 10° N 17:26:22 66° WNW 17:31:18 10° SSW
CSL-04 Debris 4.1 17:25:24 10° SSE 17:30:49 71° ENE 17:36:18 10° N
CZ-4 R/B 4.5 17:29:11 10° S 17:33:18 82° W 17:37:26 10° NNW
COSMO-SKYMED 1 2.8 17:28:59 10° N 17:33:19 72° WNW 17:37:38 10° SSW
CZ-2D R/B 3.7 17:31:43 11° SE 17:35:09 40° ENE 17:38:48 10° N
Cosmos 1898 Rocket 4.0 17:31:34 10° N 17:36:31 38° ENE 17:39:33 21° ESE
USA 238 DEB 4.0 17:30:41 10° SW 17:37:20 67° NW 17:44:14 10° NNE
USA 238 4.0 17:30:47 10° SW 17:37:26 68° NW 17:44:20 10° NNE
Cosmos 2082 Rocket 2.2 17:31:58 10° NNW 17:37:42 88° ENE 17:43:22 10° SSE
H-2A R/B 3.9 17:40:42 15° NE 17:40:42 15° NE 17:42:42 10° NNE
Cosmos 1943 Rocket 3.6 17:36:37 10° SSE 17:38:58 18° SE 17:38:58 18° SE
Cosmos 2058 3.0 17:37:37 10° N 17:41:44 50° E 17:45:48 10° SSE
Unknown 4.0 17:42:16 10° NW 17:45:48 38° NNE 17:46:21 36° NE
Unknown 3.2 17:43:12 10° NW 17:46:42 76° SW 17:47:59 36° SE
Cosmos 1459 Rocket 4.0 17:41:25 10° N 17:47:33 56° ENE 17:53:45 10° SSE
Cosmos 1076 Rocket 3.4 17:43:45 10° N 17:48:07 84° E 17:52:26 10° S
Cosmos 1939 Rocket 2.9 17:46:40 19° SE 17:49:18 54° ENE 17:53:18 10° N
IRS-1A Rocket 4.4 17:47:28 17° SE 17:51:27 46° ENE 17:56:43 10° N
Delta 2 Rocket 4.2 17:52:31 10° WSW 17:55:38 28° S 17:56:06 27° S
DMSP B5D1-3 4.4 17:52:57 10° NNE 17:58:07 81° ESE 18:03:16 10° SSW
NOSS 3-2 (A) 4.0 17:53:38 10° SW 17:59:16 55° NW 18:05:41 10° NNE
In-Cosmos 22 Rocket 4.1 17:54:04 10° N 17:59:30 66° ENE 18:05:02 10° SSE
Cosmos 2061 Rocket 4.1 17:55:07 10° N 18:01:11 51° ENE 18:06:01 16° SSE
Cosmos 2151 3.9 17:59:44 10° N 18:02:29 32° NNE 18:02:29 32° NNE
Okean 3 Rocket 3.6 18:00:55 10° N 18:05:23 58° E 18:05:52 54° ESE
Ariane Rocket 2.9 18:02:13 15° SSE 18:06:30 71° ENE 18:11:36 10° N
Meteor 2-1 Rocket 4.1 18:03:50 10° S 18:09:20 89° W 18:14:58 10° N
Cosmos 468 Rocket 3.9 18:04:28 10° SSW 18:09:46 89° ESE 18:15:02 10° NNE
ADEOS Rocket 3.9 18:07:11 10° NNE 18:19:25 14° SSE 18:20:24 10° SSE
Cosmos 2278 Rocket 4.4 18:11:58 10° WSW 18:16:23 23° NW 18:20:50 10° N
YAOGAN 1 4.1 18:14:12 10° SSW 18:18:11 36° W 18:22:12 10° NNW
Cosmos 2173 Rocket 3.9 18:12:08 10° N 18:18:23 85° W 18:24:30 10° S
Cosmos 2297 4.3 18:16:32 10° SW 18:22:08 58° WNW 18:27:48 10° NNE
Cosmos 990 Rocket 3.9 18:16:57 10° NNW 18:22:12 89° ENE 18:23:48 46° SSE
Lacrosse 5 3.1 18:18:10 10° WNW 18:22:49 37° SW 18:25:45 20° S
CZ-4 R/B 3.9 18:21:07 10° SSW 18:24:28 23° W 18:27:52 10° NW
Cosmos 1864 Rocket 4.4 18:18:37 10° N 18:24:42 59° E 18:25:35 54° ESE
Cosmos 1937 Rocket 3.3 18:19:56 10° NNW 18:25:05 73° ENE 18:25:12 72° E
NOSS 3-2 (C) 4.0 18:20:45 10° SW 18:26:25 54° NW 18:31:43 15° NNE
Cosmos 858 Rocket 4.3 18:22:08 10° NNW 18:27:21 80° ENE 18:27:44 74° ESE
BREEZE-M DEB (TANK) 3.1 18:19:06 10° WSW 18:27:43 54° NNW 18:28:17 49° N
Cosmos 2123 Rocket 3.8 18:24:08 10° S 18:30:22 71° E 18:36:37 10° NNE
Cosmos 1570 Rocket 4.0 18:27:04 10° SSW 18:32:24 83° WNW 18:34:59 32° NNE
Cosmos 1802 Rocket 4.1 18:26:30 10° N 18:32:57 81° W 18:39:18 10° S
ATLAS CENTAUR R/B 4.1 18:35:38 10° N 18:36:02 11° N 18:36:02 11° N
Cosmos-2242 3.7 18:34:45 10° SSW 18:39:00 52° W 18:43:15 10° N
Cosmos 1725 Rocket 3.8 18:36:39 10° N 18:42:58 81° E 18:43:50 67° SSE
Cosmos 1763 Rocket 4.0 18:39:13 10° SSW 18:44:26 59° WNW 18:47:27 25° N
ATLAS 3B R/B 3.0 18:42:10 10° SW 18:48:48 59° NW 18:52:28 27° NNE
Cosmos 2208 Rocket 4.2 18:44:42 10° SSW 18:49:39 68° W 18:49:39 68° W
Cosmos 2344 4.3 18:44:15 10° S 18:48:37 34° SSE 18:48:37 34° SSE
CENTAUR R/B 3.2 18:48:44 10° WSW 18:54:32 51° NW 18:58:23 25° NNE
SJ 16-02 2.9 18:53:48 10° NNW 18:56:28 33° NW 18:56:28 33° NW
Cosmos 2369 Rocket 4.0 19:02:27 10° SSW 19:04:06 20° SSW 19:04:06 20° SSW
H-2A R/B 3.8 19:21:20 27° NNW 19:21:20 27° NNW 19:23:43 10° NNW
Cosmos 1943 Rocket 3.9 19:18:27 10° SW 19:20:37 24° SW 19:20:37 24° SW
ADEOS Rocket 4.3 19:52:31 10° N 19:59:34 44° WNW 20:00:00 44° WNW
